星链-32250 (STARLINK-32250)

导读 | 星芒AI

STARLINK-32250 是 SpaceX Starlink 卫星互联网项目中的一个成员,属于低轨卫星群,旨在为全球用户提供高速互联网服务。该卫星于2023年发射,运行在约550公里高的近地轨道,采用先进推进系统和激光通信技术,以提升网络效率与稳定性。作为 Starlink 计划的一部分,它有助于扩大覆盖范围,特别是在偏远和网络基础设施薄弱的地区。

基本信息
目录编号:
60425
目录名称:
STARLINK-32250
国际标识:
2024-144A
轨道中心:
EARTH
卫星名称:
星链-32250 (STARLINK-32250)
卫星全名:
星链-32250 (STARLINK-32250)
卫星状态:
在轨 (已飞行495 天)
发射日期:
2024-08-12 UTC
国别 :
美国 (US)
星等 :
--
轨道信息
数据来源 国际轨道数据 AOE轨道数据
星历时间 2025-12-20T06:17:18+0800
8小时前
查看轨道信息
2025-12-17T21:00:00+0800
2天前
查看轨道信息
半长轴 6853.378km 6853.285km
偏心率 0.0001397 0.0001139
轨道倾角 53.160° 53.160°
近地点辐角 81.667° 57.750°
升交点赤经 227.884° 238.971°
平近点角 278.449° 105.761°
近地点 474.283km 474.369km
远地点 476.199km 475.931km
周期 94.106分钟 94.104分钟
每日圈数 15.301916 15.302227
详细信息
卫星平台:
Starlink v2.0 mini
运营商:
太空探索技术公司
运营商所在国:
美国
制造商(研发单位):
太空探索技术公司
制造商所在国:
美国
使用方式:
暂无
卫星简介
星链(Starlink)计划是由太空探索技术公司(SpaceX)提出的一个巨型低轨卫星互联网星座项目,计划在2019年至2024年间在太空搭建由约1.2万颗卫星组成的“星链”网络,其中1584颗将部署在地球上空550千米处的近地轨道,并从2020年开始工作。该卫星仍在工作。
2D轨道图
3D轨道图
轨道高度分析图
轨道倾角分析图
轨道综合分析图
查看轨道综合分析图